< < Back
Terminal Aerodrome Forecast


Current Version              Previous Versions:   1  2  3  4  5  6  7  8  9  

Terminal Aerodrome Forecast

261
FTUS44 KBMX 242344 RRA
TAFANB
TAF
KANB 242344Z 2500/2524 10008KT P6SM VCTS SCT035 BKN060CB
     FM250200 10007KT P6SM BKN060
     FM250900 12009KT P6SM OVC015
      TEMPO 2511/2515 4SM BR OVC007
     FM251800 14006KT 5SM SHRA VCTS SCT020 BKN040CB=



Latest METAR

619
SAUS70 KWBC 250700 RRM
MTRANB
METAR KANB 250653Z AUTO VRB05KT 10SM FEW090 SCT110 22/14 A3019 RMK AO2
SLP214 T02220144


USA.gov is the U.S. government's official web portal to all federal, state and local government web resources and services.